| time (UTC) | temp F | wind direction | speed knots | gust knots | rain 1hr in | rain 24hr in | rain mn in | humidity % | barometer mb |
| 20260510164629 | 61 | 73 | 4.3 | 10.4 | 0.00 | 0.00 | 0.01 | 85 | 1010.7 |
| 20260510164129 | 61 | 90 | 1.7 | 10.4 | 0.00 | 0.00 | 0.01 | 88 | 1010.9 |
| 20260510162554 | 61 | 64 | 1.7 | 10.4 | 0.00 | 0.00 | 0.01 | 89 | 1010.4 |
| 20260510162053 | 61 | 58 | 1.7 | 10.4 | 0.00 | 0.00 | 0.01 | 88 | 1010.6 |
| 20260510161553 | 61 | 111 | 2.6 | 10.4 | 0.00 | 0.00 | 0.01 | 87 | 1010.5 |
| 20260510161052 | 61 | 44 | 2.6 | 10.4 | 0.00 | 0.00 | 0.01 | 87 | 1010.2 |
| 20260510160551 | 61 | 83 | 0.0 | 10.4 | 0.00 | 0.00 | 0.01 | 88 | 1009.8 |
| 20260510160050 | 61 | 89 | 0.0 | 10.4 | 0.00 | 0.00 | 0.01 | 87 | 1009.7 |
| 20260510155033 | 60 | 156 | 0.9 | 10.4 | 0.00 | 0.00 | 0.01 | 87 | 1009.8 |
| 20260510154533 | 60 | 185 | 0.0 | 10.4 | 0.00 | 0.00 | 0.01 | 88 | 1009.3 |
| 20260510154032 | 60 | 185 | 0.0 | 10.4 | 0.00 | 0.00 | 0.01 | 89 | 1008.7 |
| 20260510153531 | 59 | 186 | 1.7 | 10.4 | 0.00 | 0.00 | 0.01 | 90 | 1008.7 |
| 20260510153031 | 59 | 194 | 2.6 | 10.4 | 0.01 | 0.00 | 0.01 | 90 | 1008.5 |
| 20260510152530 | 59 | 171 | 0.9 | 10.4 | 0.01 | 0.00 | 0.01 | 91 | 1008.3 |
| 20260510152029 | 59 | 139 | 0.0 | 10.4 | 0.01 | 0.00 | 0.01 | 92 | 1008.4 |
| 20260510151528 | 59 | 129 | 0.0 | 10.4 | 0.01 | 0.00 | 0.01 | 92 | 1008.3 |
| 20260510150512 | 59 | 184 | 1.7 | 10.4 | 0.01 | 0.00 | 0.01 | 92 | 1008.5 |
| 20260510150012 | 59 | 168 | 2.6 | 10.4 | 0.01 | 0.00 | 0.01 | 92 | 1008.3 |
| 20260510145512 | 59 | 196 | 1.7 | 10.4 | 0.01 | 0.00 | 0.01 | 92 | 1008.4 |
| 20260510145012 | 59 | 187 | 0.0 | 10.4 | 0.01 | 0.00 | 0.01 | 92 | 1008.2 |
| 20260510144511 | 59 | 182 | 0.0 | 10.4 | 0.01 | 0.00 | 0.01 | 91 | 1008.0 |
| 20260510144011 | 59 | 165 | 0.0 | 10.4 | 0.01 | 0.00 | 0.01 | 91 | 1008.0 |
| 20260510142955 | 60 | 171 | 1.7 | 10.4 | 0.01 | 0.00 | 0.01 | 89 | 1008.1 |
| 20260510142454 | 60 | 157 | 0.0 | 10.4 | 0.00 | 0.00 | 0.00 | 89 | 1006.6 |
| 20260510141954 | 60 | 156 | 0.9 | 10.4 | 0.00 | 0.00 | 0.00 | 88 | 1006.5 |
| 20260510141454 | 60 | 134 | 1.7 | 10.4 | 0.00 | 0.00 | 0.00 | 87 | 1005.0 |
| 20260510140437 | 61 | 84 | 2.6 | 10.4 | 0.00 | 0.00 | 0.00 | 84 | 1007.7 |
| 20260510135936 | 61 | 45 | 0.0 | 10.4 | 0.00 | 0.00 | 0.00 | 84 | 1007.1 |
| 20260510135435 | 61 | 63 | 0.9 | 10.4 | 0.00 | 0.00 | 0.00 | 84 | 1007.1 |
| 20260510134935 | 61 | 2 | 1.7 | 10.4 | 0.00 | 0.00 | 0.00 | 84 | 1007.5 |
| 20260510134434 | 61 | 70 | 0.9 | 10.4 | 0.00 | 0.00 | 0.00 | 84 | 1007.0 |
| 20260510133933 | 61 | 5 | 1.7 | 10.4 | 0.00 | 0.00 | 0.00 | 85 | 1006.8 |
| 20260510133433 | 60 | 309 | 1.7 | 10.4 | 0.00 | 0.00 | 0.00 | 86 | 1006.3 |
| 20260510132932 | 60 | 14 | 1.7 | 10.4 | 0.00 | 0.00 | 0.00 | 86 | 1003.7 |
| 20260510132431 | 60 | 30 | 2.6 | 10.4 | 0.00 | 0.00 | 0.00 | 86 | 993.1 |
| 20260510131930 | 59 | 49 | 3.5 | 10.4 | 0.00 | 0.00 | 0.00 | 87 | 999.7 |
| 20260510131429 | 59 | 18 | 2.6 | 10.4 | 0.00 | 0.00 | 0.00 | 87 | 999.5 |
| 20260510130929 | 59 | 15 | 3.5 | 10.4 | 0.00 | 0.00 | 0.00 | 87 | 999.5 |
| 20260510130428 | 59 | 16 | 3.5 | 10.4 | 0.00 | 0.00 | 0.00 | 87 | 999.7 |
| 20260510125412 | 58 | 13 | 2.6 | 10.4 | 0.00 | 0.00 | 0.00 | 89 | 999.7 |
| 20260510124911 | 58 | 19 | 1.7 | 10.4 | 0.00 | 0.00 | 0.00 | 89 | 1003.3 |
| 20260510124411 | 58 | 23 | 1.7 | 10.4 | 0.00 | 0.00 | 0.00 | 89 | 993.1 |
| 20260510123911 | 58 | 18 | 1.7 | 10.4 | 0.00 | 0.00 | 0.00 | 89 | 927.0 |
| 20260510123411 | 58 | 345 | 2.6 | 10.4 | 0.00 | 0.00 | 0.00 | 89 | 942.7 |
| 20260510122911 | 58 | 356 | 1.7 | 10.4 | 0.00 | 0.00 | 0.00 | 89 | 945.2 |
| 20260510122411 | 58 | 9 | 2.6 | 10.4 | 0.00 | 0.00 | 0.00 | 89 | 940.5 |
| 20260510121911 | 58 | 9 | 2.6 | 10.4 | 0.00 | 0.00 | 0.00 | 89 | 965.5 |
| 20260510120856 | 57 | 108 | 2.6 | 10.4 | 0.00 | 0.00 | 0.00 | 89 | 977.4 |
| 20260510120356 | 57 | 100 | 2.6 | 10.4 | 0.00 | 0.00 | 0.00 | 89 | 989.9 |
| 20260510115855 | 57 | 90 | 2.6 | 10.4 | 0.00 | 0.00 | 0.00 | 89 | 989.6 |
| 20260510115354 | 57 | 85 | 2.6 | 10.4 | 0.00 | 0.00 | 0.00 | 89 | 984.0 |
| 20260510114338 | 57 | 118 | 1.7 | 10.4 | 0.00 | 0.00 | 0.00 | 90 | 968.5 |
| 20260510113322 | 57 | 87 | 2.6 | 10.4 | 0.00 | 0.00 | 0.00 | 89 | 968.4 |
| 20260510112821 | 57 | 71 | 2.6 | 10.4 | 0.00 | 0.00 | 0.00 | 89 | 969.0 |
| 20260510112320 | 57 | 88 | 1.7 | 10.4 | 0.00 | 0.00 | 0.00 | 89 | 945.7 |
| 20260510111819 | 57 | 107 | 1.7 | 10.4 | 0.00 | 0.00 | 0.00 | 88 | 938.4 |
| 20260510111319 | 57 | 60 | 1.7 | 10.4 | 0.00 | 0.00 | 0.00 | 88 | 939.8 |
| 20260510110818 | 57 | 72 | 3.5 | 10.4 | 0.00 | 0.00 | 0.00 | 89 | 939.9 |
| 20260510110317 | 57 | 73 | 3.5 | 10.4 | 0.00 | 0.00 | 0.00 | 88 | 939.6 |
| 20260510105300 | 57 | 67 | 4.3 | 10.4 | 0.00 | 0.00 | 0.00 | 88 | 938.1 |
| 20260510104759 | 57 | 63 | 4.3 | 10.4 | 0.00 | 0.00 | 0.00 | 88 | 938.3 |
| 20260510104259 | 57 | 59 | 4.3 | 10.4 | 0.00 | 0.00 | 0.00 | 88 | 938.6 |
| 20260510103758 | 57 | 66 | 5.2 | 10.4 | 0.00 | 0.00 | 0.00 | 89 | 937.9 |
| 20260510103257 | 57 | 72 | 3.5 | 10.4 | 0.00 | 0.00 | 0.00 | 89 | 937.7 |
| 20260510102756 | 57 | 59 | 2.6 | 10.4 | 0.00 | 0.00 | 0.00 | 88 | 938.0 |
| 20260510102256 | 57 | 48 | 2.6 | 10.4 | 0.00 | 0.00 | 0.00 | 88 | 939.4 |
| 20260510101755 | 57 | 47 | 3.5 | 10.4 | 0.00 | 0.00 | 0.00 | 88 | 939.1 |
| 20260510101254 | 57 | 50 | 2.6 | 10.4 | 0.00 | 0.00 | 0.00 | 88 | 937.3 |
| 20260510100753 | 57 | 37 | 3.5 | 10.4 | 0.00 | 0.00 | 0.00 | 88 | 942.0 |
| 20260510100252 | 57 | 36 | 4.3 | 10.4 | 0.00 | 0.00 | 0.00 | 88 | 946.9 |
| 20260510095236 | 57 | 50 | 3.5 | 10.4 | 0.00 | 0.00 | 0.00 | 88 | 949.5 |
| 20260510094736 | 57 | 38 | 3.5 | 10.4 | 0.00 | 0.00 | 0.00 | 88 | 950.6 |
| 20260510094235 | 58 | 37 | 2.6 | 10.4 | 0.00 | 0.00 | 0.00 | 87 | 951.5 |
| 20260510093735 | 58 | 58 | 1.7 | 10.4 | 0.00 | 0.00 | 0.00 | 86 | 951.8 |
| 20260510093234 | 58 | 44 | 1.7 | 10.4 | 0.00 | 0.00 | 0.00 | 86 | 952.8 |
| 20260510092733 | 58 | 30 | 2.6 | 10.4 | 0.00 | 0.00 | 0.00 | 85 | 954.1 |
| 20260510092232 | 59 | 31 | 4.3 | 10.4 | 0.00 | 0.00 | 0.00 | 85 | 955.1 |
| 20260510091732 | 59 | 25 | 5.2 | 10.4 | 0.00 | 0.00 | 0.00 | 85 | 954.4 |
| 20260510091231 | 59 | 21 | 4.3 | 10.4 | 0.00 | 0.00 | 0.00 | 85 | 955.3 |
| 20260510090730 | 59 | 24 | 3.5 | 10.4 | 0.00 | 0.00 | 0.00 | 85 | 955.9 |
| 20260510090229 | 59 | 8 | 4.3 | 10.4 | 0.00 | 0.00 | 0.00 | 85 | 955.6 |
| 20260510085729 | 59 | 358 | 4.3 | 10.4 | 0.00 | 0.00 | 0.00 | 85 | 956.0 |
| 20260510085228 | 59 | 359 | 5.2 | 10.4 | 0.00 | 0.00 | 0.00 | 85 | 957.3 |
| 20260510084727 | 59 | 3 | 6.1 | 10.4 | 0.00 | 0.00 | 0.00 | 86 | 958.8 |
| 20260510084226 | 59 | 359 | 5.2 | 10.4 | 0.00 | 0.00 | 0.00 | 85 | 960.1 |
| 20260510083210 | 59 | 1 | 4.3 | 10.4 | 0.00 | 0.00 | 0.00 | 86 | 961.0 |
| 20260510082154 | 59 | 14 | 5.2 | 10.4 | 0.00 | 0.00 | 0.00 | 86 | 961.8 |
| 20260510081653 | 58 | 20 | 5.2 | 10.4 | 0.00 | 0.00 | 0.00 | 87 | 962.9 |
| 20260510081154 | 58 | 31 | 3.5 | 10.4 | 0.00 | 0.00 | 0.00 | 88 | 963.8 |
| 20260510080137 | 58 | 51 | 2.6 | 10.4 | 0.00 | 0.00 | 0.00 | 87 | 972.0 |
| 20260510075637 | 58 | 41 | 2.6 | 10.4 | 0.00 | 0.00 | 0.00 | 86 | 972.4 |
| 20260510075136 | 58 | 40 | 1.7 | 10.4 | 0.00 | 0.00 | 0.00 | 85 | 973.1 |
| 20260510074636 | 59 | 35 | 2.6 | 10.4 | 0.00 | 0.00 | 0.00 | 85 | 973.8 |
| 20260510074136 | 59 | 24 | 4.3 | 10.4 | 0.00 | 0.00 | 0.00 | 85 | 978.3 |
| 20260510073120 | 59 | 20 | 4.3 | 10.4 | 0.00 | 0.00 | 0.00 | 85 | 969.4 |
| 20260510072620 | 59 | 19 | 4.3 | 10.4 | 0.00 | 0.00 | 0.00 | 85 | 967.8 |
| 20260510072120 | 59 | 37 | 3.5 | 10.4 | 0.00 | 0.00 | 0.00 | 85 | 966.8 |
| 20260510071618 | 59 | 37 | 4.3 | 10.4 | 0.00 | 0.00 | 0.00 | 84 | 959.3 |
| 20260510070603 | 59 | 45 | 3.5 | 10.4 | 0.00 | 0.00 | 0.00 | 84 | 961.6 |
| 20260510065548 | 60 | 28 | 3.5 | 10.4 | 0.00 | 0.00 | 0.00 | 83 | 946.0 |
| 20260510064532 | 60 | 23 | 3.5 | 10.4 | 0.00 | 0.00 | 0.00 | 83 | 941.6 |
| 20260510063516 | 60 | 21 | 4.3 | 10.4 | 0.00 | 0.00 | 0.00 | 83 | 944.1 |
| 20260510063016 | 60 | 26 | 3.5 | 10.4 | 0.00 | 0.00 | 0.00 | 82 | 945.2 |
| 20260510062000 | 60 | 33 | 6.1 | 10.4 | 0.00 | 0.00 | 0.00 | 82 | 984.2 |
| 20260510061501 | 60 | 57 | 4.3 | 10.4 | 0.00 | 0.00 | 0.00 | 82 | 989.0 |
| 20260510061001 | 61 | 45 | 4.3 | 10.4 | 0.00 | 0.00 | 0.00 | 81 | 989.1 |
| 20260510060500 | 61 | 73 | 2.6 | 10.4 | 0.00 | 0.00 | 0.00 | 81 | 988.9 |
| 20260510060000 | 61 | 53 | 1.7 | 10.4 | 0.00 | 0.00 | 0.00 | 81 | 988.7 |
| 20260510055500 | 61 | 48 | 5.2 | 11.3 | 0.00 | 0.00 | 0.00 | 81 | 981.6 |
| 20260510055000 | 61 | 40 | 5.2 | 11.3 | 0.00 | 0.00 | 0.00 | 81 | 956.3 |
| 20260510054500 | 61 | 16 | 4.3 | 11.3 | 0.00 | 0.00 | 0.00 | 81 | 954.1 |
| 20260510053959 | 61 | 26 | 4.3 | 11.3 | 0.00 | 0.00 | 0.00 | 81 | 953.9 |
| 20260510053458 | 61 | 356 | 3.5 | 11.3 | 0.00 | 0.00 | 0.00 | 81 | 952.6 |
| 20260510052956 | 61 | 10 | 3.5 | 11.3 | 0.00 | 0.00 | 0.00 | 80 | 951.6 |
| 20260510052456 | 61 | 21 | 4.3 | 11.3 | 0.00 | 0.00 | 0.00 | 80 | 957.2 |
| 20260510051954 | 61 | 8 | 5.2 | 11.3 | 0.00 | 0.00 | 0.00 | 80 | 939.1 |
| 20260510051454 | 62 | 40 | 5.2 | 11.3 | 0.00 | 0.00 | 0.00 | 80 | 908.3 |
| 20260510050953 | 62 | 0 | 5.2 | 11.3 | 0.00 | 0.00 | 0.00 | 79 | 909.2 |
| 20260510050451 | 62 | 9 | 5.2 | 11.3 | 0.00 | 0.00 | 0.00 | 79 | 910.4 |
| 20260510045950 | 62 | 358 | 6.1 | 13.0 | 0.00 | 0.00 | 0.00 | 79 | 912.1 |
| 20260510045450 | 62 | 12 | 5.2 | 13.0 | 0.00 | 0.00 | 0.00 | 79 | 911.5 |
| 20260510044434 | 62 | 13 | 4.3 | 13.0 | 0.00 | 0.00 | 0.00 | 78 | 911.0 |
| 20260510043933 | 62 | 3 | 7.0 | 13.0 | 0.00 | 0.00 | 0.00 | 78 | 909.7 |
| 20260510043432 | 62 | 44 | 4.3 | 11.3 | 0.00 | 0.00 | 0.00 | 78 | 910.7 |
| 20260510042931 | 62 | 50 | 5.2 | 11.3 | 0.00 | 0.00 | 0.00 | 78 | 909.9 |
| 20260510042430 | 62 | 64 | 5.2 | 11.3 | 0.00 | 0.00 | 0.00 | 78 | 909.8 |
| 20260510041928 | 62 | 56 | 6.1 | 11.3 | 0.00 | 0.00 | 0.00 | 78 | 908.1 |
| 20260510040913 | 63 | 57 | 6.1 | 15.6 | 0.00 | 0.00 | 0.00 | 77 | 929.8 |
| 20260510040412 | 63 | 67 | 6.1 | 15.6 | 0.00 | 0.00 | 0.00 | 77 | 930.6 |
| 20260510034842 | 63 | 30 | 6.1 | 12.2 | 0.00 | 0.00 | 0.12 | 77 | 910.3 |
| 20260510034341 | 63 | 323 | 6.1 | 11.3 | 0.00 | 0.00 | 0.12 | 76 | 904.7 |
| 20260510033841 | 63 | 42 | 6.1 | 16.5 | 0.00 | 0.00 | 0.12 | 76 | 924.2 |
| 20260510032824 | 63 | 52 | 7.0 | 11.3 | 0.00 | 0.00 | 0.12 | 76 | 932.2 |
| 20260510032323 | 63 | 53 | 5.2 | 13.0 | 0.00 | 0.00 | 0.12 | 76 | 931.5 |
| 20260510031822 | 63 | 46 | 7.8 | 13.0 | 0.00 | 0.00 | 0.12 | 76 | 928.7 |
| 20260510030807 | 63 | 48 | 4.3 | 12.2 | 0.00 | 0.00 | 0.12 | 76 | 928.6 |
| 20260510025752 | 63 | 48 | 5.2 | 12.2 | 0.00 | 0.00 | 0.12 | 75 | 924.9 |
| 20260510025251 | 63 | 16 | 5.2 | 11.3 | 0.00 | 0.00 | 0.12 | 75 | 948.8 |
| 20260510024750 | 63 | 54 | 6.1 | 10.4 | 0.00 | 0.00 | 0.12 | 75 | 963.1 |
| 20260510024250 | 64 | 40 | 4.3 | 10.4 | 0.00 | 0.00 | 0.12 | 75 | 964.0 |
| 20260510023749 | 64 | 36 | 7.0 | 10.4 | 0.00 | 0.00 | 0.12 | 75 | 969.5 |
| 20260510023248 | 64 | 41 | 4.3 | 10.4 | 0.00 | 0.00 | 0.12 | 74 | 974.0 |
| 20260510022747 | 64 | 44 | 3.5 | 10.4 | 0.00 | 0.00 | 0.12 | 74 | 974.1 |
| 20260510022246 | 64 | 46 | 5.2 | 10.4 | 0.00 | 0.00 | 0.12 | 74 | 978.9 |
| 20260510021746 | 64 | 34 | 5.2 | 10.4 | 0.00 | 0.00 | 0.12 | 73 | 982.5 |
| 20260510021245 | 64 | 49 | 6.1 | 10.4 | 0.00 | 0.00 | 0.12 | 73 | 973.9 |
| 20260510020744 | 64 | 349 | 4.3 | 10.4 | 0.00 | 0.00 | 0.12 | 73 | 978.1 |
| 20260510015728 | 64 | 46 | 4.3 | 10.4 | 0.00 | 0.00 | 0.12 | 72 | 964.5 |
| 20260510015228 | 65 | 322 | 6.1 | 10.4 | 0.00 | 0.00 | 0.12 | 72 | 970.4 |
| 20260510014727 | 65 | 54 | 3.5 | 10.4 | 0.00 | 0.00 | 0.12 | 72 | 971.8 |
| 20260510014227 | 65 | 47 | 6.1 | 10.4 | 0.00 | 0.00 | 0.12 | 71 | 972.6 |
| 20260510013727 | 65 | 45 | 5.2 | 10.4 | 0.00 | 0.00 | 0.12 | 71 | 957.8 |
| 20260510013226 | 65 | 53 | 5.2 | 10.4 | 0.00 | 0.00 | 0.12 | 70 | 966.2 |
| 20260510012725 | 65 | 43 | 5.2 | 10.4 | 0.00 | 0.00 | 0.12 | 70 | 991.9 |
| 20260510012224 | 66 | 35 | 4.3 | 10.4 | 0.00 | 0.00 | 0.12 | 70 | 994.3 |
| 20260510011726 | 66 | 29 | 5.2 | 10.4 | 0.00 | 0.00 | 0.12 | 69 | 991.2 |
| 20260510011222 | 66 | 21 | 4.3 | 10.4 | 0.00 | 0.00 | 0.12 | 69 | 989.4 |
| 20260510010206 | 66 | 29 | 4.3 | 11.3 | 0.00 | 0.00 | 0.12 | 69 | 991.4 |
| 20260510005706 | 66 | 31 | 3.5 | 11.3 | 0.00 | 0.00 | 0.12 | 68 | 991.2 |
| 20260510005205 | 66 | 25 | 4.3 | 11.3 | 0.00 | 0.00 | 0.12 | 68 | 995.3 |
| 20260510004704 | 66 | 7 | 3.5 | 11.3 | 0.00 | 0.00 | 0.12 | 67 | 983.5 |
| 20260510004204 | 66 | 346 | 4.3 | 11.3 | 0.00 | 0.00 | 0.12 | 67 | 985.9 |
| 20260510003704 | 66 | 26 | 3.5 | 11.3 | 0.00 | 0.00 | 0.12 | 67 | 966.3 |
| 20260510003204 | 67 | 16 | 3.5 | 11.3 | 0.00 | 0.00 | 0.12 | 66 | 966.2 |
| 20260510002704 | 67 | 10 | 3.5 | 11.3 | 0.00 | 0.00 | 0.12 | 66 | 969.9 |
| 20260510002204 | 67 | 26 | 3.5 | 11.3 | 0.00 | 0.00 | 0.12 | 65 | 907.2 |
| 20260510001704 | 67 | 350 | 3.5 | 11.3 | 0.00 | 0.00 | 0.12 | 65 | 920.5 |
| 20260510001203 | 67 | 341 | 4.3 | 11.3 | 0.00 | 0.00 | 0.12 | 65 | 943.4 |
| 20260510000702 | 68 | 322 | 4.3 | 11.3 | 0.00 | 0.00 | 0.12 | 64 | 952.7 |
| 20260510000201 | 68 | 307 | 5.2 | 11.3 | 0.00 | 0.00 | 0.12 | 64 | 936.7 |
| 20260509235700 | 68 | 288 | 3.5 | 11.3 | 0.00 | 0.00 | 0.12 | 63 | 942.5 |
| 20260509234643 | 68 | 282 | 4.3 | 11.3 | 0.00 | 0.00 | 0.12 | 63 | 946.0 |
| 20260509233627 | 69 | 237 | 5.2 | 11.3 | 0.00 | 0.00 | 0.12 | 62 | 926.2 |
| 20260509233127 | 69 | 243 | 6.1 | 11.3 | 0.00 | 0.00 | 0.12 | 61 | 951.9 |
| 20260509232626 | 69 | 238 | 4.3 | 10.4 | 0.00 | 0.00 | 0.12 | 61 | 951.0 |
| 20260509231056 | 69 | 243 | 4.3 | 10.4 | 0.00 | 0.00 | 0.12 | 60 | 939.9 |
| 20260509230039 | 69 | 238 | 5.2 | 13.0 | 0.00 | 0.00 | 0.12 | 59 | 936.5 |
| 20260509225539 | 70 | 251 | 6.1 | 13.0 | 0.00 | 0.00 | 0.12 | 59 | 952.6 |
| 20260509225039 | 70 | 242 | 6.1 | 13.0 | 0.00 | 0.00 | 0.12 | 59 | 934.9 |
| 20260509224539 | 70 | 243 | 3.5 | 11.3 | 0.00 | 0.00 | 0.12 | 59 | 936.6 |
| 20260509224038 | 70 | 248 | 5.2 | 12.2 | 0.00 | 0.00 | 0.12 | 59 | 924.9 |
| 20260509223538 | 69 | 237 | 7.0 | 13.9 | 0.00 | 0.00 | 0.12 | 59 | 931.5 |
| 20260509223038 | 70 | 222 | 5.2 | 13.9 | 0.00 | 0.00 | 0.12 | 59 | 943.9 |
| 20260509222538 | 70 | 228 | 7.8 | 13.0 | 0.00 | 0.00 | 0.12 | 59 | 938.1 |
| 20260509221007 | 70 | 245 | 3.5 | 12.2 | 0.00 | 0.00 | 0.12 | 60 | 941.1 |
| 20260509215951 | 69 | 230 | 7.0 | 12.2 | 0.00 | 0.00 | 0.12 | 60 | 945.9 |
| 20260509214935 | 69 | 240 | 5.2 | 10.4 | 0.00 | 0.00 | 0.12 | 60 | 939.8 |
| 20260509214435 | 69 | 228 | 5.2 | 11.3 | 0.00 | 0.00 | 0.12 | 61 | 941.2 |
| 20260509213418 | 70 | 217 | 5.2 | 11.3 | 0.00 | 0.00 | 0.12 | 59 | 950.2 |
| 20260509212917 | 70 | 275 | 4.3 | 11.3 | 0.00 | 0.00 | 0.12 | 60 | 950.8 |
| 20260509212417 | 69 | 229 | 4.3 | 11.3 | 0.00 | 0.00 | 0.12 | 61 | 937.3 |
| 20260509211401 | 69 | 238 | 6.1 | 11.3 | 0.00 | 0.00 | 0.12 | 62 | 940.1 |
| 20260509210900 | 69 | 240 | 7.0 | 11.3 | 0.00 | 0.00 | 0.12 | 61 | 939.9 |
| 20260509210400 | 69 | 237 | 4.3 | 10.4 | 0.00 | 0.00 | 0.12 | 63 | 935.0 |
| 20260509205859 | 69 | 254 | 2.6 | 10.4 | 0.00 | 0.00 | 0.12 | 61 | 933.9 |
| 20260509204852 | 69 | 248 | 3.5 | 13.0 | 0.00 | 0.00 | 0.12 | 62 | 946.0 |
| 20260509204351 | 68 | 246 | 7.8 | 13.0 | 0.00 | 0.00 | 0.12 | 61 | 944.7 |
| 20260509203850 | 68 | 260 | 5.2 | 15.6 | 0.00 | 0.00 | 0.12 | 60 | 937.6 |
| 20260509202319 | 68 | 255 | 4.3 | 11.3 | 0.00 | 0.00 | 0.12 | 62 | 940.2 |
| 20260509201819 | 68 | 225 | 4.3 | 10.4 | 0.00 | 0.00 | 0.12 | 63 | 939.5 |
| 20260509201319 | 67 | 257 | 7.8 | 10.4 | 0.00 | 0.00 | 0.12 | 62 | 939.0 |
| 20260509200819 | 67 | 257 | 7.0 | 10.4 | 0.00 | 0.00 | 0.12 | 63 | 942.1 |
| 20260509200319 | 68 | 282 | 4.3 | 10.4 | 0.00 | 0.00 | 0.12 | 62 | 936.6 |
| 20260509195306 | 68 | 257 | 4.3 | 10.4 | 0.00 | 0.00 | 0.12 | 63 | 939.2 |
| 20260509194803 | 68 | 252 | 5.2 | 10.4 | 0.00 | 0.00 | 0.12 | 64 | 940.5 |
| 20260509194303 | 66 | 280 | 4.3 | 11.3 | 0.00 | 0.00 | 0.12 | 66 | 949.7 |
| 20260509193803 | 66 | 319 | 4.3 | 11.3 | 0.00 | 0.00 | 0.12 | 67 | 960.2 |
| 20260509193303 | 66 | 257 | 6.1 | 11.3 | 0.00 | 0.00 | 0.12 | 66 | 961.0 |
| 20260509192803 | 66 | 270 | 5.2 | 11.3 | 0.00 | 0.00 | 0.12 | 66 | 959.0 |
| 20260509192306 | 67 | 235 | 5.2 | 11.3 | 0.00 | 0.00 | 0.12 | 66 | 962.9 |
| 20260509191802 | 67 | 269 | 3.5 | 11.3 | 0.00 | 0.00 | 0.12 | 63 | 937.1 |
| 20260509191302 | 67 | 240 | 3.5 | 11.3 | 0.00 | 0.00 | 0.12 | 68 | 968.1 |
| 20260509190802 | 66 | 222 | 3.5 | 11.3 | 0.00 | 0.00 | 0.12 | 68 | 968.4 |
| 20260509190301 | 66 | 226 | 3.5 | 11.3 | 0.00 | 0.00 | 0.12 | 68 | 967.6 |
| 20260509185801 | 65 | 253 | 4.3 | 13.9 | 0.00 | 0.00 | 0.12 | 66 | 966.2 |
| 20260509184745 | 66 | 247 | 7.8 | 12.2 | 0.00 | 0.00 | 0.12 | 66 | 964.9 |
| 20260509184244 | 66 | 241 | 7.0 | 11.3 | 0.00 | 0.00 | 0.12 | 65 | 962.1 |
| 20260509183229 | 66 | 282 | 3.5 | 11.3 | 0.00 | 0.00 | 0.12 | 65 | 976.2 |
| 20260509182728 | 65 | 243 | 5.2 | 12.2 | 0.00 | 0.00 | 0.12 | 66 | 983.7 |
| 20260509182227 | 65 | 272 | 7.0 | 12.2 | 0.00 | 0.00 | 0.12 | 65 | 991.6 |
| 20260509181210 | 65 | 263 | 8.7 | 13.9 | 0.00 | 0.00 | 0.12 | 64 | 992.1 |
| 20260509180710 | 64 | 242 | 6.1 | 13.0 | 0.00 | 0.00 | 0.12 | 65 | 992.0 |
| 20260509180209 | 64 | 224 | 8.7 | 13.0 | 0.00 | 0.00 | 0.12 | 64 | 992.2 |
| 20260509175153 | 64 | 206 | 2.6 | 9.6 | 0.00 | 0.00 | 0.12 | 67 | 992.8 |
| 20260509174652 | 63 | 249 | 3.5 | 9.6 | 0.00 | 0.00 | 0.12 | 67 | 992.7 |
| 20260509174151 | 63 | 275 | 3.5 | 9.6 | 0.00 | 0.00 | 0.12 | 68 | 992.7 |
| 20260509173135 | 64 | 250 | 3.5 | 9.6 | 0.00 | 0.00 | 0.12 | 68 | 992.9 |
| 20260509172634 | 64 | 270 | 3.5 | 9.6 | 0.00 | 0.00 | 0.12 | 69 | 995.8 |
| 20260509172133 | 63 | 352 | 1.7 | 9.6 | 0.00 | 0.00 | 0.12 | 72 | 1001.6 |
| 20260509171633 | 62 | 211 | 3.5 | 12.2 | 0.00 | 0.00 | 0.12 | 74 | 1003.5 |
| 20260509171132 | 62 | 1 | 5.2 | 12.2 | 0.00 | 0.00 | 0.12 | 73 | 1003.2 |
| 20260509170115 | 61 | 199 | 4.3 | 13.0 | 0.00 | 0.00 | 0.12 | 76 | 1003.7 |
| 20260509165059 | 60 | 66 | 3.5 | 11.3 | 0.00 | 0.00 | 0.12 | 81 | 1003.2 |